Вернуться в каталог

STARLINK-4602

АктивенСвязьVLEO
NORAD 53629·PAYLOAD·🇺🇸 United States

Запущен Aug 28, 2022 с Cape Canaveral Space Force Station

Loading…

Ближайшие Пролёты (ближайшие 24 часа)

TLE

СвежийSource: CelesTrak SupGP

Эпоха: Sep 14, 2026, 21:53 UTC

1 53629C 22104AT  26257.91229167  .00057823  00000+0  17093-2 0  2576
2 53629  53.1587  93.7260 0001013  82.2134  83.2830 15.34345060    14

Отслеживайте STARLINK-4602 в реальном времени с AllMySat

Download on the App Store